KC1SQ Weather Reports


Display with metric or nautical units.
time (UTC)temp
F
wind
direction
speed
MPH
gust
MPH
rain 1hr
in
rain 24hr
in
rain mn
in
humidity
%
barometer
mb
20260506125554 60 78 0.0 0.0 0.00 0.00 0.00 61 1008.0
20260506125049 60 78 0.0 0.0 0.00 0.00 0.00 60 1008.0
20260506124542 60 78 0.0 0.0 0.00 0.00 0.00 60 1008.1
20260506124036 60 78 0.0 0.0 0.00 0.00 0.00 60 1008.1
20260506123530 59 108 0.0 0.0 0.00 0.00 0.00 61 1008.0
20260506123024 59 108 0.0 0.0 0.00 0.00 0.00 61 1008.2
20260506122518 59 108 0.0 0.0 0.00 0.00 0.00 61 1008.2
20260506122012 59 108 0.0 0.0 0.00 0.00 0.00 60 1008.2
20260506121506 59 108 0.0 0.0 0.00 0.00 0.00 61 1008.2
20260506121000 58 238 0.0 0.0 0.00 0.00 0.00 63 1008.2
20260506120454 58 238 0.0 0.0 0.00 0.00 0.00 62 1008.4
20260506115948 58 238 0.0 0.0 0.00 0.00 0.00 61 1008.3
20260506115442 58 238 0.0 0.0 0.00 0.00 0.00 62 1008.3
20260506114936 58 238 0.0 0.0 0.00 0.00 0.00 64 1008.2
20260506114430 57 238 0.0 0.0 0.00 0.00 0.00 65 1008.2
20260506113925 57 238 0.0 0.0 0.00 0.00 0.00 65 1008.4
20260506113418 56 355 0.0 0.0 0.00 0.00 0.00 66 1008.4
20260506112912 56 144 0.0 0.0 0.00 0.00 0.00 65 1008.5
20260506112635 56 144 0.0 0.0 0.00 0.00 0.00 65 1008.4
20260506111901 55 144 0.0 0.0 0.00 0.00 0.00 64 1009.0
20260506111354 55 144 0.0 0.0 0.00 0.00 0.00 64 1008.6
20260506110848 55 144 0.0 0.0 0.00 0.00 0.00 64 1008.7
20260506110342 54 144 0.0 0.0 0.00 0.00 0.00 64 1008.7
20260506105922 54 144 0.0 0.0 0.00 0.00 0.00 64 1008.9
20260506104824 54 144 0.0 0.0 0.00 0.00 0.00 65 1008.7
20260506104538 54 144 0.0 0.0 0.00 0.00 0.00 66 1008.5
20260506103812 54 144 0.0 0.0 0.00 0.00 0.00 66 1008.5
20260506103306 54 144 0.0 0.0 0.00 0.00 0.00 66 1008.4
20260506102800 53 144 0.0 0.0 0.00 0.00 0.00 66 1008.5
20260506102253 54 144 0.0 0.0 0.00 0.00 0.00 66 1008.5
20260506101748 53 144 0.0 0.0 0.00 0.00 0.00 66 1008.3
20260506101242 53 144 0.0 0.0 0.00 0.00 0.00 65 1008.2
20260506100736 53 144 0.0 0.0 0.00 0.00 0.00 65 1008.1
20260506100231 53 144 0.0 0.0 0.00 0.00 0.00 65 1008.3
20260506095724 53 144 0.0 0.0 0.00 0.00 0.00 66 1008.3
20260506095219 53 144 0.0 0.0 0.00 0.00 0.00 65 1008.1
20260506094713 53 144 0.0 0.0 0.00 0.00 0.00 65 1008.1
20260506094206 54 144 0.0 0.0 0.00 0.00 0.00 65 1008.2
20260506093701 54 144 0.0 0.0 0.00 0.00 0.00 65 1008.2
20260506093153 54 144 0.0 0.0 0.00 0.00 0.00 64 1008.2
20260506092916 54 144 0.0 0.0 0.00 0.00 0.00 64 1008.2
20260506092142 54 144 0.0 0.0 0.00 0.00 0.00 64 1008.2
20260506091637 55 144 0.0 0.0 0.00 0.00 0.00 64 1008.2
20260506091130 55 144 0.0 0.0 0.00 0.00 0.00 64 1008.4
20260506090625 55 144 0.0 0.0 0.00 0.00 0.00 64 1008.2
20260506090118 55 144 0.0 0.0 0.00 0.00 0.00 64 1008.1
20260506085612 56 144 0.0 0.0 0.00 0.00 0.00 64 1008.1
20260506085106 56 144 0.0 0.0 0.00 0.00 0.00 64 1008.1
20260506084600 56 144 0.0 0.0 0.00 0.00 0.00 64 1008.1
20260506084054 56 144 0.0 0.0 0.00 0.00 0.00 64 1008.0
20260506083548 56 144 0.0 0.0 0.00 0.00 0.00 64 1007.7
20260506083041 56 144 0.0 0.0 0.00 0.00 0.00 63 1007.9
20260506082536 56 144 0.0 0.0 0.00 0.00 0.00 64 1007.8
20260506082030 56 144 0.0 0.0 0.00 0.00 0.00 64 1007.7
20260506081524 56 144 0.0 0.0 0.00 0.00 0.00 64 1007.7
20260506081018 57 144 0.0 0.0 0.00 0.00 0.00 63 1007.6
20260506080512 57 144 0.0 0.0 0.00 0.00 0.00 63 1007.6
20260506072930 57 144 0.0 0.0 0.00 0.00 0.00 63 1007.8
20260506072425 57 144 0.0 0.0 0.00 0.00 0.00 63 1007.7
20260506071925 57 144 0.0 0.0 0.00 0.00 0.00 63 1007.7
20260506071425 57 144 0.0 0.0 0.00 0.00 0.00 63 1007.6
20260506070926 57 144 0.0 0.0 0.00 0.00 0.00 63 1007.5
20260506070425 57 144 0.0 0.0 0.00 0.00 0.00 63 1007.5
20260506070151 57 144 0.0 0.0 0.00 0.00 0.00 62 1007.6
20260506062417 57 144 0.0 0.0 0.00 0.00 0.00 62 1007.2
20260506061915 58 144 0.0 0.0 0.00 0.00 0.00 62 1007.2
20260506061633 58 144 0.0 0.0 0.00 0.00 0.00 62 1007.4
20260506060912 58 144 0.0 0.0 0.00 0.00 0.00 61 1007.4
20260506060410 57 144 0.0 0.0 0.00 0.00 0.00 61 1007.3
20260506051402 57 144 0.0 0.0 0.00 0.00 0.00 65 1007.4
20260506050901 57 142 0.0 0.0 0.00 0.00 0.00 65 1007.4
20260506050402 57 142 0.0 0.0 0.00 0.00 0.00 64 1007.4
20260506050122 57 142 0.0 0.0 0.00 0.00 0.00 64 1007.5
20260506044900 57 142 0.0 0.0 0.00 0.00 0.00 64 1007.6
20260506044630 58 142 0.0 0.0 0.00 0.00 0.00 64 1007.6
20260506043901 58 142 0.0 0.0 0.00 0.00 0.00 64 1007.5
20260506043402 58 142 0.0 0.0 0.00 0.00 0.00 64 1007.5
20260506042900 58 142 0.0 0.0 0.00 0.00 0.00 64 1007.4
20260506042401 58 142 0.0 0.0 0.00 0.00 0.00 64 1007.4
20260506041900 58 142 0.0 0.0 0.00 0.00 0.00 64 1007.2
20260506041402 58 142 0.0 0.0 0.00 0.00 0.00 64 1007.4
20260506040901 58 142 0.0 0.0 0.00 0.00 0.00 64 1007.3
20260506040402 58 142 0.0 0.0 0.00 0.00 0.00 65 1007.4
20260506035900 57 142 0.0 0.0 0.00 0.00 0.00 65 1007.3
20260506035354 57 142 0.0 0.0 0.00 0.00 0.00 66 1007.5
20260506034848 57 142 0.0 0.0 0.00 0.00 0.00 67 1007.5
20260506034342 57 113 0.0 0.0 0.00 0.00 0.00 67 1007.4
20260506033835 57 113 0.0 0.0 0.00 0.00 0.00 67 1007.3
20260506033329 58 113 0.0 0.0 0.00 0.00 0.00 66 1007.1
20260506032830 58 113 0.0 0.0 0.00 0.00 0.00 66 1007.0
20260506032330 58 113 0.0 0.0 0.00 0.00 0.00 66 1007.1
20260506031830 58 113 0.0 0.0 0.00 0.00 0.00 66 1007.1
20260506031328 58 113 0.0 0.0 0.00 0.00 0.00 66 1007.0
20260506030828 58 113 0.0 0.0 0.00 0.00 0.00 66 1007.1
20260506030327 59 113 0.0 0.0 0.00 0.00 0.00 66 1007.1
20260506025828 59 113 0.0 0.0 0.00 0.00 0.00 66 1007.1
20260506025327 59 113 0.0 0.0 0.00 0.00 0.00 66 1007.1
20260506024828 59 113 0.0 0.0 0.00 0.00 0.00 66 1007.3
20260506024327 59 113 0.0 0.0 0.00 0.00 0.00 66 1007.3
20260506023827 59 113 0.0 0.0 0.00 0.00 0.00 65 1007.3
20260506023551 60 113 0.0 0.0 0.00 0.00 0.00 65 1007.4
20260506022826 60 113 0.0 0.0 0.00 0.00 0.00 65 1007.5
20260506022329 60 113 0.0 0.0 0.00 0.00 0.00 65 1007.5
20260506021824 60 113 0.0 0.0 0.00 0.00 0.00 66 1007.5
20260506021546 60 113 0.0 0.0 0.00 0.00 0.00 66 1007.6
20260506020825 61 113 0.0 0.0 0.00 0.00 0.00 66 1007.6
20260506020547 61 113 0.0 0.0 0.00 0.00 0.00 66 1007.5
20260506015825 61 113 0.0 0.0 0.00 0.00 0.00 67 1007.6
20260506015326 61 113 0.0 0.0 0.00 0.00 0.00 67 1007.5
20260506014826 61 113 0.0 0.0 0.00 0.00 0.00 67 1007.6
20260506014325 61 113 0.0 0.0 0.00 0.00 0.00 67 1007.7
20260506014047 61 113 0.0 0.0 0.00 0.00 0.00 68 1007.6
20260506013322 61 113 0.0 0.0 0.00 0.00 0.00 68 1007.7
20260506012821 61 113 0.0 0.0 0.00 0.00 0.00 67 1007.7
20260506012321 61 113 0.0 0.0 0.00 0.00 0.00 67 1007.7
20260506012043 61 113 0.0 0.0 0.00 0.00 0.00 67 1007.6
20260506011321 61 113 0.0 0.0 0.00 0.00 0.00 66 1007.6
20260506010820 61 113 0.0 0.0 0.00 0.00 0.00 66 1007.6
20260506010322 61 113 0.0 0.0 0.00 0.00 0.00 66 1007.6
20260506005821 61 113 0.0 0.0 0.00 0.00 0.00 66 1007.5
20260506005322 61 113 0.0 0.0 0.00 0.00 0.00 66 1007.3
20260506004818 61 113 0.0 0.0 0.00 0.00 0.00 66 1007.4
20260506004316 61 113 0.0 0.0 0.00 0.00 0.00 66 1007.3
20260506003818 61 113 0.0 0.0 0.00 0.00 0.00 66 1007.3
20260506003317 61 113 0.0 0.0 0.00 0.00 0.00 66 1007.3
20260506002818 61 113 0.0 0.0 0.00 0.00 0.00 66 1007.2
20260506002316 62 113 0.0 0.0 0.00 0.00 0.00 66 1007.1
20260506001818 62 113 0.0 0.0 0.00 0.00 0.00 66 1006.9
20260506001316 62 113 0.0 0.0 0.00 0.00 0.00 67 1006.8
20260506000818 62 113 0.0 0.0 0.00 0.00 0.00 65 1006.6
20260506000539 62 113 0.0 0.0 0.00 0.00 0.00 66 1006.6
20260505235815 62 113 0.0 0.0 0.00 0.00 0.00 66 1006.2
20260505235309 63 113 0.0 0.0 0.00 0.00 0.00 65 1005.9
20260505234803 63 113 0.0 0.0 0.00 0.00 0.00 64 1005.6
20260505234524 64 113 0.0 0.0 0.00 0.00 0.00 63 1005.4
20260505233751 65 64 0.0 0.0 0.00 0.00 0.00 61 1005.4
20260505233245 65 64 0.0 0.0 0.00 0.00 0.00 56 1005.5
20260505232740 66 355 0.0 0.0 0.00 0.00 0.00 59 1005.5
20260505232233 68 103 0.0 0.0 0.00 0.00 0.00 55 1005.6
20260505231731 68 38 0.0 0.0 0.00 0.00 0.00 52 1006.1
20260505231450 68 38 0.0 0.0 0.00 0.00 0.00 50 1006.1
20260505230730 69 54 0.0 0.0 0.00 0.00 0.00 50 1005.8
20260505230230 69 176 0.0 2.0 0.00 0.00 0.00 48 1005.9
20260505225732 70 313 1.0 4.0 0.00 0.00 0.00 48 1005.9
20260505225231 70 313 2.0 9.0 0.00 0.00 0.00 48 1005.9
20260505224730 70 229 2.0 11.0 0.00 0.00 0.00 46 1005.9
20260505224230 71 306 2.0 11.0 0.00 0.00 0.00 45 1005.8
20260505223731 70 235 1.0 11.0 0.00 0.00 0.00 43 1005.6
20260505223721 70 276 1.0 9.0 0.00 0.00 0.00 41 1005.6
20260505222951 71 195 0.0 5.0 0.00 0.00 0.00 41 1003.6
20260505222231 71 154 0.0 5.0 0.00 0.00 0.00 40 1003.2
20260505221730 71 190 0.0 3.0 0.00 0.00 0.00 40 1003.1
20260505221230 71 193 0.0 4.0 0.00 0.00 0.00 39 1003.1
20260505220730 71 298 1.0 4.0 0.00 0.00 0.00 39 1003.1
20260505220231 72 194 1.0 4.0 0.00 0.00 0.00 39 1003.0
20260505215730 72 165 1.0 4.0 0.00 0.00 0.00 39 1002.9
20260505215225 72 180 1.0 6.0 0.00 0.00 0.00 38 1002.9
20260505214719 73 113 1.0 6.0 0.00 0.00 0.00 38 1002.8
20260505214213 73 152 1.0 9.0 0.00 0.00 0.00 37 1002.7
20260505213707 74 125 2.0 9.0 0.00 0.00 0.00 36 1002.7
20260505213201 74 194 1.0 6.0 0.00 0.00 0.00 36 1002.6
20260505212655 75 188 1.0 5.0 0.00 0.00 0.00 36 1002.6
20260505212149 75 167 1.0 5.0 0.00 0.00 0.00 36 1002.6
20260505211643 76 201 1.0 8.0 0.00 0.00 0.00 35 1002.4
20260505211138 76 175 2.0 9.0 0.00 0.00 0.00 34 1002.5
20260505210631 77 123 2.0 10.0 0.00 0.00 0.00 33 1002.4
20260505210125 77 170 2.0 9.0 0.00 0.00 0.00 34 1002.4
20260505205619 77 180 2.0 9.0 0.00 0.00 0.00 34 1002.3
20260505205113 77 164 2.0 10.0 0.00 0.00 0.00 34 1002.3
20260505204606 77 126 2.0 10.0 0.00 0.00 0.00 34 1002.3
20260505204102 77 157 2.0 10.0 0.00 0.00 0.00 34 1002.3
20260505203555 77 125 2.0 10.0 0.00 0.00 0.00 33 1002.4
20260505203308 77 149 1.0 6.0 0.00 0.00 0.00 33 1002.4
20260505202543 77 218 1.0 11.0 0.00 0.00 0.00 34 1002.4
20260505202037 76 155 1.0 11.0 0.00 0.00 0.00 35 1002.6
20260505201531 76 173 1.0 7.0 0.00 0.00 0.00 34 1002.5
20260505201025 76 115 2.0 7.0 0.00 0.00 0.00 34 1002.6
20260505200519 77 157 2.0 9.0 0.00 0.00 0.00 34 1002.7
20260505200014 77 89 2.0 9.0 0.00 0.00 0.00 33 1002.7
20260505195507 78 152 2.0 7.0 0.00 0.00 0.00 33 1002.6
20260505195457 78 155 3.0 8.0 0.00 0.00 0.00 33 1002.9
20260505194455 78 166 2.0 8.0 0.00 0.00 0.00 32 1003.0
20260505193948 79 176 1.0 8.0 0.00 0.00 0.00 32 1003.2
20260505193443 79 163 2.0 9.0 0.00 0.00 0.00 31 1003.0
20260505193159 78 161 2.0 8.0 0.00 0.00 0.00 32 1003.1
20260505192431 78 125 1.0 7.0 0.00 0.00 0.00 32 1003.0
20260505191925 78 152 1.0 7.0 0.00 0.00 0.00 33 1003.1
20260505191419 78 150 1.0 7.0 0.00 0.00 0.00 33 1003.3
20260505190913 77 141 1.0 4.0 0.00 0.00 0.00 33 1003.4
20260505190407 78 140 1.0 6.0 0.00 0.00 0.00 32 1003.6
20260505185902 78 163 1.0 5.0 0.00 0.00 0.00 31 1003.8
20260505185355 79 234 1.0 5.0 0.00 0.00 0.00 31 1003.8
20260505184849 80 184 2.0 8.0 0.00 0.00 0.00 29 1003.9
20260505184343 82 126 1.0 8.0 0.00 0.00 0.00 27 1003.9
20260505183837 84 160 1.0 6.0 0.00 0.00 0.00 26 1003.9
20260505183331 85 97 2.0 9.0 0.00 0.00 0.00 25 1004.0
20260505182825 85 143 3.0 11.0 0.00 0.00 0.00 24 1004.1
20260505182536 86 79 3.0 11.0 0.00 0.00 0.00 20 1003.9
20260505181813 85 214 2.0 10.0 0.00 0.00 0.00 21 1004.0
20260505181307 85 190 2.0 10.0 0.00 0.00 0.00 22 1003.9
20260505181019 85 272 2.0 8.0 0.00 0.00 0.00 23 1004.1
20260505180255 85 329 2.0 8.0 0.00 0.00 0.00 23 1004.1
20260505175749 85 142 2.0 10.0 0.00 0.00 0.00 22 1004.2
20260505175732 84 186 2.0 10.0 0.00 0.00 0.00 23 1004.2
20260505174737 84 207 2.0 6.0 0.00 0.00 0.00 24 1004.3
20260505174231 83 178 2.0 7.0 0.00 0.00 0.00 24 1004.3
20260505173950 83 239 3.0 9.0 0.00 0.00 0.00 24 1004.2
20260505173219 84 158 2.0 9.0 0.00 0.00 0.00 23 1004.2
20260505172719 84 242 2.0 8.0 0.00 0.00 0.00 24 1004.5
20260505172215 83 207 2.0 10.0 0.00 0.00 0.00 24 1004.5
20260505171715 83 180 3.0 10.0 0.00 0.00 0.00 25 1004.6
20260505171217 83 216 2.0 12.0 0.00 0.00 0.00 24 1004.7
20260505170715 83 238 1.0 12.0 0.00 0.00 0.00 25 1005.0
20260505170217 82 80 1.0 7.0 0.00 0.00 0.00 27 1005.1
20260505165716 82 155 1.0 7.0 0.00 0.00 0.00 26 1005.0
20260505165217 82 205 0.0 10.0 0.00 0.00 0.00 27 1005.3
20260505164714 81 183 1.0 10.0 0.00 0.00 0.00 28 1005.2
20260505164216 80 215 2.0 12.0 0.00 0.00 0.00 28 1005.2
20260505163712 80 111 2.0 12.0 0.00 0.00 0.00 27 1005.5
20260505163211 80 186 2.0 10.0 0.00 0.00 0.00 28 1005.6
20260505162710 80 195 2.0 10.0 0.00 0.00 0.00 28 1005.7
20260505162434 80 306 2.0 9.0 0.00 0.00 0.00 28 1005.9
20260505161709 79 179 2.0 12.0 0.00 0.00 0.00 29 1006.0
20260505161207 79 299 2.0 12.0 0.00 0.00 0.00 29 1005.9
20260505160708 79 190 1.0 9.0 0.00 0.00 0.00 29 1006.1
20260505160206 78 130 1.0 7.0 0.00 0.00 0.00 30 1006.1
20260505152703 76 156 1.0 6.0 0.00 0.00 0.00 33 1006.9
20260505152201 75 299 1.0 7.0 0.00 0.00 0.00 32 1006.9
20260505151703 74 302 1.0 7.0 0.00 0.00 0.00 33 1007.1
20260505151657 74 161 1.0 9.0 0.00 0.00 0.00 33 1007.1
20260505150659 73 213 2.0 9.0 0.00 0.00 0.00 34 1007.1
20260505150200 73 277 1.0 8.0 0.00 0.00 0.00 34 1007.2
20260505140416 68 209 0.0 4.0 0.00 0.00 0.00 37 1006.7